This is the latest recevied weather packets stored in our database for station/object KB4MOX. If no packets are shown the sender has not sent any weather packets the latest 10 day(s).
| Time | Temp. | Humidity | Pressure | Rain* | Wind** | Luminosity | Snow |
|---|---|---|---|---|---|---|---|
| 1778097145 | 30.56° C | 42% | 1014.3 hPa | 0 mm | - | 783 W/m² | - |
| 1778096842 | 31.11° C | 41% | 1014.4 hPa | 0 mm | - | 259 W/m² | - |
| 1778096538 | 30.56° C | 42% | 1014.5 hPa | 0 mm | - | 745 W/m² | - |
| 1778096236 | 30.56° C | 41% | 1014.4 hPa | 0 mm | - | 480 W/m² | - |
| 1778095933 | 31.11° C | 39% | 1014.5 hPa | 0 mm | - | 762 W/m² | - |
| 1778095629 | 30.56° C | 40% | 1014.5 hPa | 0 mm | - | 808 W/m² | - |
| 1778095326 | 30.56° C | 37% | 1014.5 hPa | 0 mm | - | 779 W/m² | - |
| 1778095017 | 30.56° C | 37% | 1014.5 hPa | 0 mm | - | 781 W/m² | - |
| 1778094713 | 30.56° C | 38% | 1014.5 hPa | 0 mm | - | 803 W/m² | - |
| 1778094410 | 31.11° C | 38% | 1014.7 hPa | 0 mm | - | 780 W/m² | - |
| 1778094107 | 30.56° C | 41% | 1014.7 hPa | 0 mm | - | 781 W/m² | - |
| 1778093804 | 30° C | 42% | 1014.6 hPa | 0 mm | - | 779 W/m² | - |
| 1778093500 | 30.56° C | 43% | 1014.7 hPa | 0 mm | - | 789 W/m² | - |
| 1778093198 | 30° C | 43% | 1014.7 hPa | 0 mm | - | 795 W/m² | - |
| 1778092895 | 30° C | 43% | 1014.8 hPa | 0 mm | - | 797 W/m² | - |
| 1778092592 | 30° C | 42% | 1014.7 hPa | 0 mm | - | 803 W/m² | - |
| 1778092287 | 29.44° C | 45% | 1014.8 hPa | 0 mm | - | 812 W/m² | - |
| 1778091985 | 29.44° C | 44% | 1014.6 hPa | 0 mm | - | 818 W/m² | - |
| 1778091682 | 29.44° C | 45% | 1014.6 hPa | 0 mm | - | 821 W/m² | - |
| 1778091380 | 29.44° C | 44% | 1014.7 hPa | 0 mm | - | 825 W/m² | - |
| 1778091077 | 29.44° C | 44% | 1014.8 hPa | 0 mm | - | 821 W/m² | - |
| 1778090774 | 28.89° C | 47% | 1014.9 hPa | 0 mm | - | 833 W/m² | - |
| 1778090470 | 28.89° C | 44% | 1015 hPa | 0 mm | - | 836 W/m² | - |
| 1778090166 | 28.89° C | 48% | 1015 hPa | 0 mm | - | 842 W/m² | - |
| 1778089862 | 28.33° C | 45% | 1015.1 hPa | 0 mm | - | 843 W/m² | - |
* Rain latest hour (hover to see other rain measurements)
** Current wind speed in m/s (hover to see current wind gust speed)